Theta_e
338 340 341 341 344 344 346 347 350 350 361 362 360 359 365 368 367 359 356 359 357 353 352 356 369 363 363 363 363 362 365 360 358
337 337 342 342 343 346 347 348 353 352 360 366 363 361 366 367 368 366 361 364 364 358 363 356 363 361 364 362 363 363 369 362 362
334 338 340 341 342 346 348 349 351 354 356 362 361 362 362 361 363 365 365 364 362 363 363 362 355 362 360 363 363 363 366 363 365
332 334 336 341 344 345 348 351 350 351 354 357 359 361 364 365 363 362 365 362 362 363 363 366 362 358 365 362 362 365 366 367 364
326 329 332 336 340 344 345 346 347 350 351 353 356 360 363 361 363 364 361 362 362 364 365 367 365 364 364 364 363 369 363 360 357
324 326 328 332 334 335 338 343 347 346 349 350 354 357 358 360 361 361 362 364 365 365 367 367 361 367 366 365 363 363 366 364 361
326 327 328 327 329 332 334 337 340 341 344 349 351 354 355 361 361 363 361 365 368 366 368 368 366 368 368 367 365 365 362 364 366
322 323 324 325 326 329 333 333 333 335 340 345 353 351 355 358 363 365 365 367 368 365 367 366 369 367 366 365 363 358 366 364 365
318 320 321 321 323 324 326 332 333 329 333 337 349 348 349 356 357 365 364 364 365 368 367 368 369 367 365 362 353 341 339 356 363
315 317 318 320 321 321 323 324 330 332 329 335 339 341 338 340 357 356 359 363 363 365 366 365 367 367 366 365 364 335 334 340 360
314 316 316 317 318 320 322 323 322 327 332 332 331 332 333 336 339 346 353 357 358 361 362 364 366 365 366 367 364 335 329 335 362
313 314 316 317 318 318 321 322 323 324 326 331 330 330 330 331 337 340 341 349 354 355 358 360 360 362 363 367 366 331 328 334 351
312 313 314 315 316 317 319 320 322 322 323 324 328 329 331 331 331 335 341 343 345 354 361 359 356 356 360 350 364 338 325 332 352
312 313 313 315 315 315 317 320 321 320 322 323 325 328 329 332 334 333 334 341 348 351 354 358 359 359 362 362 359 362 324 321 356
310 311 312 313 313 314 316 318 319 320 321 324 327 329 328 329 331 331 330 337 342 346 350 351 353 357 355 360 363 338 333 320 323
309 310 311 312 312 314 316 317 319 318 322 325 324 326 329 328 329 329 330 330 333 335 345 343 345 348 352 354 354 354 329 323 319
308 309 309 311 312 311 312 314 315 317 319 322 324 323 326 329 326 326 327 326 327 327 331 335 337 338 340 351 354 355 355 361 346
307 308 309 308 307 308 310 313 314 315 319 320 321 322 322 325 325 324 324 325 324 325 329 324 327 331 332 333 339 346 321 321 334
307 305 305 305 306 307 309 310 311 314 315 317 319 320 321 321 322 322 321 320 320 312 309 306 305 304 314 331 318 311 306 304 306
306 305 306 305 303 304 305 307 309 314 311 310 314 317 318 320 318 320 320 320 318 317 318 307 305 302 303 302 307 302 300 301 301
Wind_Speed
19 15 20 17 17 14 15 15 15 16 18 16 16 15 14 11 12 9 8 8 6 8 8 3 12 10 9 8 8 7 6 7 7
7 15 12 17 13 16 15 13 15 16 15 16 16 17 12 12 12 12 9 6 7 8 4 3 4 10 9 8 8 8 9 7 8
19 21 15 9 8 5 12 16 17 16 16 15 16 16 15 13 14 13 11 9 8 7 6 14 4 6 10 10 8 7 7 6 7
14 15 15 17 12 6 11 8 10 15 16 16 15 14 13 13 13 14 13 12 11 10 8 8 7 14 7 10 9 10 8 9 5
14 16 16 15 14 16 18 16 16 8 14 16 15 14 13 14 13 13 14 13 14 13 11 10 9 9 8 10 9 9 10 10 9
13 13 14 13 15 16 15 14 15 15 14 11 14 14 15 14 14 14 14 14 13 13 12 12 12 11 10 11 11 10 11 10 10
14 13 13 13 14 14 15 15 15 14 16 19 15 6 15 13 13 13 14 12 12 13 12 12 12 12 12 11 12 12 12 12 11
12 13 14 14 14 12 14 15 17 16 16 16 16 15 6 7 12 12 12 11 12 12 12 12 12 12 13 13 13 12 12 11 11
11 12 12 13 13 14 13 14 14 14 16 16 15 15 16 5 7 5 10 11 12 11 12 12 12 13 13 14 13 14 12 13 12
10 11 11 11 12 13 12 13 14 14 12 15 15 13 14 17 9 5 5 6 7 9 11 13 13 13 14 14 14 12 12 14 13
9 9 9 9 10 10 12 12 12 12 11 10 12 13 13 13 11 14 10 6 5 5 8 10 11 12 14 14 13 13 13 13 14
6 7 8 8 9 10 9 10 11 10 11 10 9 8 12 11 12 11 11 13 8 5 6 8 9 10 12 14 14 12 15 12 16
6 6 7 8 10 10 9 10 11 11 10 11 10 10 7 6 9 11 11 11 9 9 11 11 11 13 12 13 14 12 14 14 14
8 8 8 8 8 9 9 10 10 10 11 10 11 11 11 7 5 6 8 10 9 9 10 9 11 12 12 13 13 14 14 16 14
8 9 10 11 9 8 9 10 11 11 10 11 13 11 11 11 10 9 8 9 10 9 9 8 10 10 10 11 11 13 11 15 20
7 8 9 10 10 11 9 9 10 13 13 12 11 15 11 11 10 10 8 9 9 10 9 8 8 8 8 9 9 8 12 14 17
7 8 9 11 11 11 12 13 14 16 16 15 13 13 15 10 12 9 10 8 8 8 11 7 8 6 4 4 6 8 7 8 5
5 7 7 7 10 11 11 11 11 13 16 16 16 13 14 13 9 12 9 9 8 8 10 9 10 11 11 12 5 0 3 6 6
7 5 6 7 9 11 13 13 14 11 13 16 16 15 12 11 11 7 10 11 10 12 15 12 12 12 10 11 12 15 13 16 16
6 6 7 8 8 9 11 13 14 13 9 11 14 12 14 13 12 12 12 7 10 12 10 15 15 16 14 13 13 14 13 16 17
Wind_Direction
174 211 161 173 184 177 185 186 186 189 166 184 194 202 204 199 200 209 215 197 260 196 207 271 152 168 184 211 185 197 204 192 232
113 185 173 161 205 175 178 188 187 190 184 182 196 200 202 203 202 220 209 230 200 200 196 19 241 169 175 197 193 208 178 238 202
29 18 21 31 348 239 182 186 190 194 193 192 199 207 199 204 205 207 216 199 217 239 261 173 151 260 182 186 190 205 213 209 181
42 38 36 22 13 287 291 203 188 194 195 197 202 209 211 205 207 204 206 208 203 211 229 256 189 222 199 189 202 195 210 269 201
52 44 41 24 22 13 20 23 359 293 193 195 202 206 210 210 213 212 203 210 207 198 209 218 230 231 198 247 218 197 211 218 238
88 70 49 53 41 30 27 13 9 360 332 211 196 197 205 209 208 214 217 207 211 205 199 205 210 216 217 212 228 242 208 223 228
76 73 74 58 43 40 35 29 19 4 4 359 357 223 199 202 206 213 216 218 211 211 204 207 206 211 213 220 220 220 235 221 220
79 69 57 55 50 42 35 36 24 16 7 356 357 345 343 199 198 208 217 221 216 218 214 212 212 212 215 216 225 225 218 230 230
76 62 54 45 47 39 32 30 41 25 11 360 356 10 351 326 352 227 213 221 226 218 221 219 214 220 215 217 226 219 202 215 224
63 56 45 35 35 29 25 23 23 28 27 10 10 9 6 1 323 292 279 244 231 226 224 229 219 221 224 222 223 235 205 204 230
46 36 30 24 18 17 6 15 25 6 17 37 22 16 10 358 359 355 323 290 266 257 243 235 232 228 227 231 228 218 206 203 223
41 21 5 2 4 358 349 356 3 8 355 4 27 26 11 3 354 352 341 337 302 245 255 248 244 243 238 234 236 220 208 199 229
7 358 354 344 343 328 345 348 349 347 345 342 2 359 12 12 3 346 341 327 318 308 275 253 233 238 243 244 243 223 204 204 235
8 353 340 346 312 323 327 332 336 328 329 333 341 335 336 343 348 327 325 317 308 311 294 274 269 267 255 237 246 235 199 199 228
14 4 352 342 325 321 318 321 321 315 314 323 322 320 320 327 326 328 330 327 316 307 298 283 268 262 260 255 251 231 229 205 216
10 357 352 341 334 323 311 313 325 313 312 312 307 307 303 310 314 314 317 312 301 292 266 295 296 259 244 254 248 260 249 221 218
350 360 352 343 349 347 339 335 327 313 303 301 296 294 292 286 298 293 295 300 302 298 301 293 270 301 278 290 301 252 243 273 263
336 341 353 340 337 335 323 316 309 315 305 295 288 285 283 281 272 292 284 274 287 296 299 301 313 305 313 317 300 5 322 303 319
360 320 329 339 322 313 318 318 312 322 322 325 308 297 282 274 281 257 285 298 279 239 237 262 265 250 252 294 284 310 314 308 299
343 323 316 322 328 321 313 318 321 320 336 324 315 316 307 289 284 273 271 245 286 291 270 235 244 241 239 227 263 289 305 303 295